Theta_e
314 314 314 314 314 314 314 314 315 315 315 316 317 316 314 314 316 316 312 312 314 318 320 316 314 312 312 311 314 313 303 301 303 304 306 312 310 314 317 316 322 323 323 344 349
314 314 314 314 314 314 314 314 315 315 315 316 316 316 315 314 314 313 318 318 318 321 320 310 308 309 307 307 310 307 302 302 309 310 309 311 310 311 312 313 316 320 328 347 349
314 314 314 314 314 314 315 315 315 315 316 316 316 316 316 315 312 314 321 319 321 321 319 313 311 309 304 307 307 307 302 306 308 311 312 310 310 311 310 309 315 317 323 341 346
314 314 314 314 314 314 315 315 315 316 316 316 316 316 315 315 302 317 317 318 321 322 316 313 307 304 303 301 306 302 306 307 307 310 310 308 311 309 310 311 314 317 321 336 343
314 314 314 314 314 314 314 315 315 315 315 315 315 315 314 310 309 316 316 318 318 317 314 310 307 304 300 303 304 302 304 308 309 309 309 309 307 308 309 314 317 320 325 332 339
314 313 313 313 313 314 314 315 315 314 315 316 315 314 313 305 314 315 314 313 314 314 313 312 308 308 303 302 301 304 304 305 309 308 308 306 307 308 310 314 316 316 317 334 341
314 313 313 313 313 314 314 314 314 314 315 315 315 315 311 305 315 316 315 313 313 312 310 313 311 306 305 301 305 303 300 303 304 308 307 308 303 305 311 313 312 314 316 319 339
314 313 312 313 313 313 314 313 314 315 314 314 314 316 306 314 317 314 314 313 314 313 312 314 312 308 306 307 302 300 299 295 302 305 307 307 300 307 312 311 311 313 315 317 326
313 311 312 312 313 313 313 313 314 315 314 315 315 313 304 313 311 313 314 309 309 310 311 312 310 305 305 299 298 299 293 294 297 305 304 305 301 308 312 311 311 312 314 315 326
313 312 311 312 312 313 313 313 316 314 315 317 315 308 310 306 312 312 314 311 307 307 307 306 304 300 301 298 291 292 294 295 295 300 303 301 303 308 311 311 310 312 313 315 318
313 312 312 312 312 312 313 316 313 312 314 306 307 306 307 312 314 310 312 308 307 304 299 302 296 293 297 299 300 298 297 295 299 302 301 300 302 306 310 311 310 311 312 314 318
312 312 312 313 312 312 316 312 312 313 305 310 309 309 310 312 306 308 312 303 302 297 300 297 292 297 300 299 298 297 295 295 299 301 300 300 300 305 308 310 311 311 312 314 318
311 311 312 312 312 313 317 314 319 316 306 307 309 308 308 311 305 306 308 306 301 297 297 294 297 298 296 294 294 295 293 294 295 299 301 300 299 301 306 310 311 313 314 316 317
311 311 312 312 309 317 312 317 319 317 303 301 305 307 309 309 303 310 311 306 301 297 298 296 300 297 295 292 295 292 298 297 296 294 291 300 292 300 303 306 310 311 313 314 317
310 311 311 308 318 312 315 319 319 315 293 301 304 313 310 304 306 305 310 305 299 297 298 295 296 295 293 295 296 293 297 296 295 294 295 296 293 299 303 303 307 311 312 314 318
310 310 311 315 320 316 318 319 316 300 288 297 303 302 302 303 302 304 304 308 305 299 300 298 303 299 297 298 297 298 296 296 296 295 289 295 296 297 300 303 307 311 313 314 318
309 309 312 318 310 318 319 315 301 291 299 296 297 301 301 298 300 300 298 297 294 290 292 295 296 300 300 295 298 296 293 287 286 287 287 296 295 298 306 307 309 311 312 315 323
307 307 314 317 317 318 316 306 290 294 295 300 299 300 295 299 299 300 298 294 299 298 292 290 288 296 300 297 294 295 294 288 282 285 289 296 291 297 307 310 311 314 314 316 325
306 320 319 316 316 318 310 298 293 296 298 296 299 296 296 297 297 297 296 295 298 300 291 290 289 298 299 300 299 294 291 296 291 294 290 293 297 303 306 308 309 312 313 317 327
313 316 315 317 318 316 305 292 297 299 300 299 294 296 292 296 295 295 295 299 297 299 301 295 289 296 297 299 299 296 298 290 292 284 284 290 293 295 301 305 309 311 313 319 329
314 310 314 318 317 309 299 297 298 301 301 298 296 296 296 294 296 293 293 297 299 298 301 297 294 293 296 293 292 294 293 294 294 292 286 286 292 303 304 306 309 311 313 321 330
313 304 315 316 305 304 300 299 298 300 303 300 301 299 296 296 296 292 292 294 299 299 293 297 295 290 293 298 299 297 295 295 289 288 291 291 292 306 306 308 311 312 313 324 338
307 307 316 314 298 300 303 302 300 299 299 298 297 300 300 297 291 291 294 298 299 297 294 298 292 288 290 294 297 294 297 297 296 295 290 288 291 307 307 309 312 312 313 331 335
307 301 305 307 307 302 300 301 298 301 300 299 298 301 298 296 298 293 293 296 299 298 300 299 296 292 288 290 295 289 293 296 294 290 290 292 294 305 307 308 311 313 320 334 334
305 300 305 298 301 302 303 301 299 298 301 301 299 299 298 293 294 292 295 293 295 298 298 296 289 293 295 295 294 293 293 294 293 294 290 293 294 302 306 310 311 313 334 331 326
302 301 303 303 304 302 298 301 299 300 300 297 297 298 300 296 297 295 296 294 291 298 295 295 289 294 292 295 296 292 291 294 294 294 295 295 295 301 307 311 314 313 330 327 324
309 308 304 301 302 300 300 299 300 302 301 301 300 299 299 301 305 305 302 301 297 298 294 295 290 290 287 293 294 289 295 295 295 297 296 291 296 301 303 310 320 326 326 325 327
Wind_Speed
15 14 14 14 13 13 13 13 14 14 14 14 14 12 14 16 19 22 13 8 8 8 12 14 10 11 14 17 19 17 18 21 27 26 22 20 21 14 20 21 22 16 12 18 14
15 14 14 13 13 13 13 13 14 13 13 14 13 13 13 13 17 14 8 6 5 8 14 9 8 9 13 15 17 19 16 27 25 21 24 26 18 16 21 21 22 12 13 17 13
15 14 14 13 13 13 14 14 13 13 13 13 12 13 13 14 17 9 6 3 8 11 14 10 11 10 15 16 20 21 22 21 25 25 22 18 23 13 21 21 20 20 15 19 13
16 15 14 14 14 14 14 14 14 14 14 14 13 13 13 15 3 10 2 7 13 16 9 8 10 14 15 17 17 24 24 21 28 22 18 19 16 18 22 24 16 23 16 21 18
16 15 15 15 14 14 14 14 15 15 14 14 12 11 13 9 6 10 6 12 14 6 10 9 10 11 16 15 17 20 23 22 20 20 18 18 19 21 20 12 5 9 3 16 15
15 16 15 15 15 14 14 13 13 14 13 11 9 9 10 0 4 0 2 5 11 9 8 9 10 10 14 16 16 17 21 16 21 22 23 15 20 22 18 19 14 9 7 10 17
16 15 16 16 16 15 14 12 12 13 9 4 6 10 8 8 1 3 5 5 6 9 11 9 8 10 8 13 16 15 21 16 26 21 26 20 21 27 23 20 16 11 12 14 15
17 17 17 16 16 16 15 12 13 8 2 4 7 10 3 2 7 8 4 7 3 8 12 7 7 14 13 16 7 15 19 18 23 25 22 22 25 25 24 23 25 19 13 11 12
18 19 18 17 16 15 14 12 10 6 6 8 10 8 5 6 7 4 4 7 2 5 10 4 12 14 13 14 16 19 16 24 25 29 27 27 21 23 26 23 20 19 16 14 10
19 18 17 16 16 15 13 11 8 7 10 10 8 8 7 7 9 6 2 7 6 4 9 12 12 15 13 14 16 10 22 20 23 23 27 30 24 23 24 29 24 20 21 17 16
21 19 17 16 14 14 14 7 6 9 12 7 6 5 3 9 4 1 1 5 7 7 12 7 11 14 16 12 23 12 15 13 12 17 22 22 25 25 16 20 21 23 17 17 16
23 21 18 14 13 14 9 10 10 8 9 7 4 4 4 5 10 4 2 9 7 13 6 7 12 16 8 10 15 13 14 16 15 10 7 15 23 26 25 19 19 20 22 22 18
24 22 18 14 12 7 5 9 9 3 9 9 1 6 5 8 9 6 4 10 12 13 10 12 12 7 7 13 12 14 17 16 17 11 16 15 18 22 26 22 22 18 22 18 18
25 23 17 11 6 7 9 8 5 2 6 6 7 4 4 10 2 7 9 10 13 14 11 13 16 13 9 9 18 15 15 13 14 11 13 20 13 23 25 25 24 22 18 21 20
26 24 16 7 11 9 9 8 5 6 4 7 2 3 8 9 11 4 3 7 16 13 12 12 8 8 13 13 11 15 7 11 15 15 17 17 13 16 29 25 26 24 23 18 21
27 23 14 6 10 10 7 4 6 8 5 7 11 17 14 5 1 4 5 8 11 13 16 20 14 12 11 9 6 12 12 15 15 14 14 19 14 19 25 29 27 27 26 23 23
28 21 10 9 9 10 7 7 7 5 15 10 20 18 14 12 10 3 9 13 7 8 13 16 19 18 12 14 12 12 15 11 11 12 13 20 14 22 22 27 30 29 28 27 24
30 18 9 4 9 8 8 11 6 12 12 18 16 16 7 9 11 16 15 15 13 12 12 14 9 18 15 19 14 11 15 10 7 11 14 17 16 16 18 11 26 26 28 26 25
31 7 5 8 8 7 10 4 6 10 15 16 18 11 12 9 7 10 19 17 12 11 9 7 5 1 11 16 19 16 15 14 10 16 12 12 11 17 15 14 24 27 29 26 25
9 7 5 10 6 7 5 3 8 6 13 12 16 8 17 19 11 16 13 7 10 6 12 9 9 6 11 8 17 16 11 10 8 10 13 14 21 11 18 15 14 25 29 27 23
6 6 6 10 5 7 5 7 12 11 10 9 15 17 18 16 13 15 7 14 10 10 12 12 9 7 9 11 15 13 15 15 14 13 11 12 11 15 16 19 19 23 27 28 21
7 6 7 10 9 7 5 9 5 11 13 13 11 16 16 17 17 8 7 4 8 10 6 10 8 11 17 12 15 10 16 18 12 17 14 17 16 5 18 20 18 24 27 28 27
8 7 6 8 7 8 12 14 6 11 13 13 11 15 18 18 10 8 7 4 6 4 6 4 8 9 12 6 7 14 18 19 19 18 18 15 16 15 17 15 21 27 28 27 26
7 6 5 7 2 12 14 11 12 9 12 11 17 16 16 18 15 11 11 5 9 10 14 5 11 13 13 8 5 15 25 24 23 16 18 20 23 13 15 14 22 27 27 28 23
6 6 6 8 11 14 14 14 16 15 9 16 10 16 20 19 15 4 7 5 10 14 7 7 8 16 20 24 14 18 25 32 28 25 24 24 19 17 23 25 11 27 29 30 23
8 7 7 14 10 13 4 11 14 17 18 17 16 20 21 19 17 25 13 1 6 6 9 5 5 13 22 21 21 14 20 30 31 26 27 29 12 5 28 33 20 17 31 27 25
7 6 7 10 10 12 9 13 19 18 10 11 17 20 20 22 22 18 4 7 9 7 11 6 6 4 7 6 8 11 20 28 27 31 28 25 18 13 30 22 8 27 27 27 27
Wind_Direction
344 341 338 335 330 327 324 320 318 316 314 314 314 306 311 307 299 267 255 24 360 329 301 268 261 235 230 241 233 226 247 241 242 237 248 250 208 219 237 246 241 170 248 96 132
343 339 335 332 329 326 322 319 315 310 310 309 313 310 304 308 295 271 71 37 305 291 271 267 246 223 228 229 224 232 234 244 247 252 249 247 242 205 227 226 241 225 125 109 146
341 339 334 332 326 323 321 318 315 310 307 303 303 302 296 299 277 89 80 283 271 266 266 285 284 270 248 231 225 215 242 256 251 262 269 251 247 218 239 223 220 219 177 148 160
343 338 333 331 327 323 319 317 314 312 308 303 303 302 296 280 339 89 130 274 281 277 242 251 251 249 246 244 224 238 241 244 269 271 265 273 256 214 233 230 217 225 226 158 167
339 336 331 327 324 321 318 316 314 314 308 302 300 300 286 220 60 117 210 225 265 270 262 262 270 253 256 258 248 235 253 237 253 263 274 249 260 267 232 235 192 87 203 155 173
336 333 328 323 319 317 316 312 310 314 302 296 290 286 256 39 38 20 290 272 258 262 259 273 274 308 293 278 260 264 247 255 253 241 255 245 244 250 246 220 218 157 215 206 175
334 331 327 321 317 315 316 316 312 307 310 280 253 256 259 61 301 264 260 285 299 269 268 231 289 270 266 268 250 263 267 249 238 234 242 234 241 238 236 234 234 194 215 203 197
335 331 327 321 316 312 313 314 306 297 288 231 243 260 20 100 329 253 318 275 240 260 255 310 262 273 272 266 261 255 247 249 234 234 238 235 240 228 237 226 210 198 202 196 205
337 335 327 320 314 308 309 305 281 246 229 230 234 242 86 136 226 1 290 316 341 226 228 265 255 258 244 245 243 225 243 230 247 209 223 225 234 253 209 227 224 197 209 196 209
337 331 327 318 311 306 298 289 211 209 213 221 264 242 189 353 335 314 272 281 252 175 208 225 239 241 235 242 244 254 220 242 223 227 207 225 224 246 224 205 218 218 213 206 194
338 332 325 318 309 301 299 183 226 197 214 321 351 311 311 348 235 174 212 242 240 223 244 236 251 243 227 282 274 282 288 253 241 218 205 220 225 224 240 220 213 208 214 209 190
338 334 328 315 303 296 276 360 5 312 294 199 291 273 259 333 301 227 187 248 204 261 259 219 248 289 274 229 261 282 273 268 280 270 228 237 218 230 214 232 213 213 208 202 177
337 336 328 315 310 272 296 16 325 301 256 162 256 313 3 297 318 309 279 261 267 269 249 261 258 214 293 274 253 243 255 258 264 238 231 249 236 224 225 213 227 216 205 191 191
338 336 326 313 275 334 27 350 321 317 259 139 168 142 281 271 279 249 283 276 273 271 276 258 251 255 229 231 271 257 229 261 286 269 242 203 231 214 213 214 214 209 214 195 199
338 334 323 263 314 3 345 344 354 228 282 16 356 77 247 262 319 168 311 276 274 278 269 254 278 237 242 247 218 271 358 277 246 245 258 229 225 218 197 206 209 207 202 207 195
337 332 323 221 235 15 328 335 237 232 7 334 357 334 325 10 315 256 238 269 275 258 262 258 247 267 261 306 228 270 276 248 248 245 233 243 215 225 180 201 202 201 193 196 198
333 327 293 290 339 337 323 261 251 21 343 359 335 333 327 335 338 312 281 257 246 246 259 234 235 236 244 256 231 229 252 240 211 214 238 201 229 256 173 196 199 194 187 190 192
327 321 213 303 331 316 287 261 312 11 334 337 327 313 328 4 335 327 306 273 257 244 283 274 231 214 198 246 246 234 244 259 300 198 221 232 202 228 250 224 200 195 181 190 180
313 209 245 3 324 290 277 316 4 337 327 325 317 330 329 342 315 307 313 299 268 203 239 311 321 314 195 216 241 226 232 266 299 270 268 192 210 217 235 227 191 195 175 188 179
318 282 66 330 320 276 298 283 352 351 325 320 312 328 317 317 335 335 321 324 309 224 246 297 291 226 173 234 227 235 288 243 232 275 251 242 194 225 194 212 223 198 175 180 168
259 288 46 337 300 272 351 326 325 343 348 324 319 313 314 337 317 322 284 314 317 321 261 274 254 214 190 210 228 197 230 236 260 255 280 258 223 195 195 202 201 206 178 173 160
296 314 35 330 288 350 342 336 331 316 320 314 291 298 323 327 310 283 251 244 303 332 286 278 303 269 231 230 238 264 221 229 232 229 258 277 283 298 204 182 208 213 178 166 161
323 294 120 330 11 338 336 321 296 303 319 309 293 309 312 311 310 237 270 262 285 257 241 266 231 262 258 236 246 232 217 252 243 256 263 263 253 256 186 211 194 208 177 154 163
313 331 347 298 145 350 336 320 326 325 320 311 306 289 289 326 325 284 274 263 239 236 238 250 257 250 270 282 190 217 257 224 236 235 239 245 247 308 321 200 186 212 165 151 136
346 6 26 312 333 327 302 310 318 332 323 306 285 310 335 318 320 263 273 260 257 242 214 221 252 262 269 267 223 225 222 238 227 228 229 234 243 299 306 314 213 206 148 145 145
335 338 338 287 312 310 331 323 321 324 318 301 301 312 311 306 326 320 329 214 262 139 197 192 252 269 277 275 272 216 211 248 226 225 231 236 227 310 283 288 287 279 146 146 152
5 333 272 285 318 317 336 321 309 308 311 298 303 309 304 340 322 312 190 229 230 278 198 224 226 235 254 317 295 246 224 216 206 216 228 229 233 214 267 265 251 148 147 151 153